Location: Hurstbourne Priors
(51.2000°N, 1.3667°W)
Time: 22:29:34
(UTC+00:00)

Altair - Pass Details

Date: 18 April 2021
Orbit: 1501 x 1683 km, 47.2° (Epoch: 13 May)

Event Time Altitude Azimuth Distance (km) Brightness Sun altitude
Rises 14:04:28 0° 285° (WNW) 4,700 10.3 43.0°
Reaches altitude 10° 14:09:22 10° 263° (W) 3,684 10.2 42.5°
Maximum altitude 14:13:46 14° 234° (SW) 3,316 10.5 42.0°
Drops below altitude 10° 14:18:09 10° 205° (SSW) 3,646 10.5 41.5°
Sets 14:23:00 0° 183° (S) 4,620 10.5 41.0°
